Погода в Зее

Россия / Амурская область     53°44′02″N   127°15′57″E
темп.,
°C
ветер,
м/с
пор.,
м/с
влажн.,
%
обл.,
%
осадки,
мм/ч
давл.,
гПа
погр.,
м
21 апреля, ср
ср2100:00−5св21774 0.0 101514
03:00−5св22765 0.0 101629
06:00−5св23715 0.0 101758
09:00+4вюв49378 0.0 1014575
12:00+7вюв594028 0.0 1013972
15:00+13юв483591 0.0 10091256
18:00+10всв366078 0.0 1007118
21:00+3всв36816 0.0 1008102
22 апреля, чт
чт2200:00+3в3681100 0.0 1008102
03:00+3всв248598 0.0 100881
06:000ссв349223 0.0 101075
09:00+5св3674100 0.0 1010247
12:00+6с4668100 0.0 1014535
15:00+6с4572100 0.9 1016573
18:00+4с3868100 0.0 1019536
21:00−1ссз3579100 0.0 1023105
23 апреля, пт
пт2300:00−3ссз257473 0.0 1025166
03:00−3ссз2961100 0.0 1028458
06:00−2ссз41149100 0.0 10291000
09:000с584199 0.0 10311050
12:00+2ссз4731100 0.0 10311504
15:00+4ссз57305 0.0 10311948
18:00+3ссз383611 0.0 10312061
21:00−2сз23575 0.0 103243
24 апреля, сб
сб2400:00−3сз24660 0.0 103288
03:00−4сз11657 0.0 103017
06:00−3зсз1359100 0.0 1029102
09:00+4сз514375 0.0 10262325
12:00+5сз71235100 0.0 10253013
15:00+6сз7143888 0.1 10232839
18:00+3ссз616370 0.0 10242474
21:00−1ссз49420 0.0 1026401
25 апреля, вс
вс2500:00−3сз25540 0.0 102897
03:00−4ссз24580 0.0 1028100
06:00−4с246372 0.0 1027129
09:00+3ссз26365 0.0 10251207
12:00+7зсз353297 0.0 10222030
15:00+9зсз353198 0.0 10192182
18:00+8зюз3644100 0.0 1017295
21:00+2всв1164100 0.0 101710